GW4068 Weather Reports


time (UTC)temp
C
wind
direction
speed
KPH
gust
KPH
rain 1hr
cm
rain 24hr
cm
rain mn
cm
humidity
%
barometer
mb
20260506051009 13 167 0.0 3.2 0.00 0.15 0.00 84 1008.5
20260506050513 13 274 0.0 0.0 0.00 0.15 0.00 84 1008.5
20260506045007 13 274 0.0 1.6 0.00 0.15 0.00 83 1008.5
20260506044505 13 274 0.0 1.6 0.00 0.15 0.00 83 1008.5
20260506044003 14 274 0.0 1.6 0.00 0.15 0.00 82 1008.6
20260506043505 14 276 0.0 1.6 0.00 0.15 0.00 81 1008.4
20260506043006 14 276 0.0 1.6 0.00 0.15 0.00 80 1008.6
20260506042507 15 276 0.0 0.0 0.00 0.15 0.00 79 1008.6
20260506042006 15 276 0.0 0.0 0.00 0.15 0.00 78 1008.6
20260506041506 15 276 0.0 0.0 0.00 0.15 0.00 78 1008.6
20260506041006 15 276 0.0 0.0 0.00 0.15 0.00 78 1008.5
20260506040507 15 276 0.0 0.0 0.00 0.15 0.00 77 1008.4
20260506040036 15 276 0.0 0.0 0.00 0.15 0.00 77 1008.3
20260506035507 15 276 0.0 0.0 0.00 0.15 0.15 77 1008.3
20260506035008 15 276 0.0 0.0 0.00 0.15 0.15 77 1008.4
20260506034518 15 276 0.0 0.0 0.00 0.15 0.15 78 1008.6
20260506034007 15 276 0.0 0.0 0.00 0.15 0.15 78 1008.6
20260506033503 15 276 0.0 0.0 0.00 0.15 0.15 78 1008.7
20260506033005 15 276 0.0 0.0 0.00 0.15 0.15 78 1008.7
20260506032503 15 276 0.0 0.0 0.00 0.15 0.15 78 1008.6
20260506032004 15 276 0.0 0.0 0.00 0.15 0.15 78 1008.6
20260506031514 15 276 0.0 0.0 0.00 0.15 0.15 78 1008.7
20260506031008 15 276 0.0 0.0 0.00 0.15 0.15 79 1008.7
20260506030506 15 276 0.0 0.0 0.00 0.15 0.15 78 1008.7
20260506030028 15 276 0.0 0.0 0.00 0.15 0.15 76 1008.7
20260506025507 15 276 0.0 1.6 0.00 0.15 0.15 74 1008.7
20260506025007 16 276 0.0 1.6 0.00 0.15 0.15 73 1008.7
20260506024519 16 276 0.0 0.0 0.00 0.15 0.15 72 1008.6
20260506024010 16 276 0.0 0.0 0.00 0.15 0.15 70 1008.7
20260506023511 16 276 0.0 1.6 0.00 0.15 0.15 70 1008.7
20260506023020 17 276 0.0 1.6 0.00 0.15 0.15 69 1008.7
20260506022508 17 276 0.0 1.6 0.00 0.15 0.15 69 1008.7
20260506022010 17 276 0.0 1.6 0.00 0.15 0.15 68 1008.7
20260506021506 17 276 0.0 1.6 0.00 0.15 0.15 68 1008.7
20260506021003 17 276 0.0 1.6 0.00 0.15 0.15 67 1008.7
20260506020511 17 276 0.0 1.6 0.00 0.15 0.15 67 1008.8
20260506020006 17 276 0.0 1.6 0.00 0.15 0.15 66 1008.8
20260506015505 17 276 0.0 1.6 0.00 0.15 0.15 66 1008.8
20260506015004 17 276 0.0 1.6 0.00 0.15 0.15 66 1008.8
20260506014513 17 276 0.0 1.6 0.00 0.15 0.15 66 1008.7
20260506014006 17 276 0.0 0.0 0.00 0.15 0.15 65 1008.6
20260506013509 18 276 0.0 0.0 0.00 0.15 0.15 64 1008.6
20260506013026 18 276 0.0 0.0 0.00 0.15 0.15 64 1008.5
20260506012510 18 276 0.0 3.2 0.00 0.15 0.15 64 1008.5
20260506012011 18 276 0.0 3.2 0.00 0.15 0.15 64 1008.4
20260506011520 18 272 0.0 1.6 0.00 0.15 0.15 64 1008.4
20260506011006 18 271 0.0 1.6 0.00 0.15 0.15 63 1008.3
20260506010510 18 271 0.0 1.6 0.00 0.15 0.15 62 1008.4
20260506010011 18 271 0.0 1.6 0.00 0.15 0.15 62 1008.4
20260506005503 18 271 0.0 1.6 0.00 0.15 0.15 61 1008.2
20260506005006 18 272 0.0 1.6 0.00 0.15 0.15 64 1008.2
20260506004511 18 272 0.0 1.6 0.00 0.15 0.15 64 1008.2
20260506004011 19 271 0.0 1.6 0.00 0.15 0.15 60 1008.1
20260506003507 19 272 0.0 1.6 0.00 0.15 0.15 60 1008.1
20260506003015 19 271 0.0 0.0 0.00 0.15 0.15 60 1008.0
20260506002507 19 271 0.0 0.0 0.00 0.15 0.15 59 1007.9
20260506002008 20 271 0.0 1.6 0.00 0.15 0.15 59 1007.8
20260506001516 20 272 0.0 1.6 0.00 0.15 0.15 58 1007.8
20260506001009 20 272 0.0 0.0 0.00 0.15 0.15 58 1007.8
20260506000508 20 272 0.0 1.6 0.00 0.15 0.15 57 1007.8
20260506000023 20 272 0.0 1.6 0.00 0.15 0.15 57 1007.7
20260505235507 20 271 0.0 1.6 0.00 0.15 0.15 57 1007.6
20260505235012 20 271 0.0 1.6 0.00 0.15 0.15 58 1007.6
20260505234530 20 272 0.0 1.6 0.00 0.15 0.15 57 1007.6
20260505234003 20 271 0.0 1.6 0.00 0.15 0.15 57 1007.6
20260505233504 21 304 0.0 1.6 0.00 0.15 0.15 56 1007.6
20260505233008 21 304 0.0 1.6 0.00 0.15 0.15 57 1007.6
20260505232509 21 330 0.0 1.6 0.00 0.15 0.15 56 1007.5
20260505232010 21 320 0.0 1.6 0.00 0.15 0.15 55 1007.5
20260505231518 21 231 0.0 1.6 0.00 0.15 0.15 56 1007.5
20260505231006 21 231 0.0 1.6 0.00 0.15 0.15 56 1007.5
20260505230507 21 231 0.0 1.6 0.00 0.15 0.15 57 1007.5
20260505230027 21 226 1.6 1.6 0.00 0.15 0.15 55 1007.4
20260505225518 22 157 0.0 0.0 0.00 0.15 0.15 51 1007.3
20260505225009 22 156 0.0 1.6 0.00 0.15 0.15 51 1007.3
20260505224526 22 156 0.0 4.8 0.00 0.15 0.15 51 1007.4
20260505224011 22 209 0.0 4.8 0.00 0.15 0.15 48 1007.4
20260505223512 22 174 0.0 4.8 0.00 0.15 0.15 48 1007.3
20260505223024 22 327 0.0 8.0 0.00 0.15 0.15 48 1007.3
20260505222506 22 287 3.2 9.7 0.00 0.15 0.15 49 1007.4
20260505222008 22 2 3.2 9.7 0.00 0.15 0.15 47 1007.4
20260505221513 23 167 3.2 12.9 0.00 0.15 0.15 46 1007.6
20260505221006 23 241 3.2 12.9 0.00 0.15 0.15 45 1007.5
20260505220507 23 285 3.2 12.9 0.00 0.15 0.15 47 1007.6
20260505220019 23 336 4.8 11.3 0.00 0.15 0.15 45 1007.4
20260505215510 23 78 3.2 11.3 0.00 0.15 0.15 48 1007.3
20260505215008 24 306 1.6 9.7 0.00 0.15 0.15 48 1007.3
20260505214523 24 25 3.2 8.0 0.00 0.15 0.15 45 1007.1
20260505214007 25 359 0.0 4.8 0.00 0.15 0.15 44 1007.1
20260505213508 25 117 1.6 4.8 0.00 0.15 0.15 40 1006.9
20260505213025 25 37 0.0 3.2 0.00 0.15 0.15 44 1006.8
20260505212513 25 70 1.6 3.2 0.00 0.15 0.15 39 1006.6
20260505212013 25 154 0.0 8.0 0.00 0.15 0.15 39 1006.7
20260505211526 25 326 1.6 8.0 0.00 0.15 0.15 42 1006.8
20260505211010 25 110 3.2 8.0 0.00 0.15 0.15 37 1006.8
20260505210508 25 292 3.2 8.0 0.00 0.15 0.15 41 1006.8
20260505210023 25 158 1.6 8.0 0.00 0.15 0.15 39 1006.8
20260505205512 25 41 0.0 6.4 0.00 0.15 0.15 38 1006.7
20260505205011 25 49 0.0 6.4 0.00 0.15 0.15 38 1006.7
20260505204518 25 250 3.2 11.3 0.00 0.15 0.15 38 1006.7
20260505204007 24 131 3.2 11.3 0.00 0.15 0.15 39 1006.7
20260505203502 24 281 4.8 17.7 0.00 0.15 0.15 39 1006.7
20260505203004 24 165 6.4 24.1 0.00 0.15 0.15 39 1006.8
20260505202504 25 340 6.4 24.1 0.00 0.15 0.15 37 1006.7
20260505202002 25 205 3.2 12.9 0.00 0.15 0.15 38 1006.6
20260505201506 25 212 3.2 12.9 0.00 0.15 0.15 39 1006.3
20260505201005 25 219 3.2 6.4 0.00 0.15 0.15 35 1006.2
20260505200504 25 81 0.0 9.7 0.00 0.15 0.15 36 1006.3
20260505200009 25 251 3.2 12.9 0.00 0.15 0.15 37 1006.4
20260505195504 25 90 6.4 14.5 0.00 0.15 0.15 35 1006.4
20260505195002 25 231 6.4 17.7 0.00 0.15 0.15 36 1006.3
20260505194506 25 198 4.8 17.7 0.00 0.15 0.15 36 1006.3
20260505194006 25 259 6.4 16.1 0.00 0.15 0.15 35 1006.3
20260505193504 25 204 8.0 17.7 0.00 0.15 0.15 36 1006.3
20260505193004 26 229 9.7 17.7 0.00 0.15 0.15 35 1006.3
20260505192504 26 194 8.0 12.9 0.00 0.15 0.15 36 1006.3
20260505192003 26 171 8.0 17.7 0.00 0.15 0.15 37 1006.2
20260505191506 26 199 8.0 19.3 0.00 0.15 0.15 38 1006.2
20260505191006 26 226 9.7 19.3 0.00 0.15 0.15 39 1006.2
20260505190503 26 178 9.7 17.7 0.00 0.15 0.15 40 1006.1
20260505190006 26 147 8.0 20.9 0.00 0.15 0.15 38 1006.1
20260505185503 25 196 8.0 20.9 0.00 0.15 0.15 38 1006.1
20260505185006 26 187 12.9 20.9 0.00 0.15 0.15 36 1006.2
20260505184507 26 198 11.3 20.9 0.00 0.15 0.15 37 1006.4
20260505184005 26 209 9.7 16.1 0.00 0.15 0.15 37 1006.4
20260505183504 26 191 9.7 20.9 0.00 0.15 0.15 37 1006.6
20260505183004 26 177 8.0 20.9 0.00 0.15 0.15 39 1006.7
20260505182503 26 198 9.7 19.3 0.00 0.15 0.15 38 1006.6
20260505182004 26 190 11.3 32.2 0.00 0.15 0.15 39 1006.6
20260505181506 26 195 16.1 32.2 0.00 0.15 0.15 37 1006.7
20260505181004 27 198 9.7 17.7 0.00 0.15 0.15 39 1006.8
20260505180502 26 207 9.7 19.3 0.00 0.15 0.15 39 1006.9
20260505180010 26 230 12.9 19.3 0.00 0.15 0.15 40 1006.9
20260505175504 26 188 8.0 22.5 0.00 0.15 0.15 41 1007.1
20260505175004 26 179 9.7 22.5 0.00 0.15 0.15 41 1007.2
20260505174508 26 198 9.7 22.5 0.00 0.15 0.15 42 1007.3
20260505174005 26 181 6.4 12.9 0.00 0.15 0.15 46 1007.5
20260505173505 26 195 4.8 12.9 0.00 0.15 0.15 47 1007.6
20260505173010 25 195 6.4 17.7 0.00 0.15 0.15 44 1007.6
20260505172504 25 195 6.4 17.7 0.00 0.15 0.15 45 1007.5
20260505172007 25 130 9.7 17.7 0.00 0.15 0.15 47 1007.4
20260505171518 25 209 8.0 12.9 0.00 0.15 0.15 45 1007.5
20260505171004 25 180 6.4 12.9 0.00 0.15 0.15 47 1007.5
20260505170505 25 196 8.0 12.9 0.00 0.15 0.15 44 1007.5
20260505170014 25 227 6.4 11.3 0.00 0.15 0.15 48 1007.6
20260505165504 25 148 3.2 12.9 0.00 0.15 0.15 45 1007.6
20260505165006 25 224 6.4 17.7 0.00 0.15 0.15 46 1007.6
20260505164509 25 169 6.4 20.9 0.00 0.15 0.15 45 1007.6
20260505164004 25 225 11.3 20.9 0.00 0.15 0.15 44 1007.7
20260505163504 25 207 8.0 16.1 0.00 0.15 0.15 46 1007.7
20260505163010 25 214 3.2 14.5 0.00 0.15 0.15 46 1007.8
20260505162503 25 221 4.8 14.5 0.00 0.15 0.15 46 1008.0
20260505162005 25 224 6.4 19.3 0.00 0.15 0.15 47 1008.0
20260505161510 25 180 6.4 19.3 0.00 0.15 0.15 46 1008.1
20260505161005 25 257 6.4 14.5 0.00 0.15 0.15 48 1008.2
20260505160507 25 184 6.4 14.5 0.00 0.15 0.15 52 1008.3
20260505153007 23 177 8.0 14.5 0.00 0.15 0.15 52 1008.7
20260505152504 23 155 6.4 11.3 0.00 0.15 0.15 55 1008.6
20260505152008 23 149 6.4 14.5 0.00 0.15 0.15 53 1008.8
20260505151510 23 159 9.7 14.5 0.00 0.15 0.15 51 1008.7
20260505151009 23 193 8.0 11.3 0.00 0.15 0.15 54 1008.7
20260505150507 23 135 6.4 12.9 0.00 0.15 0.15 57 1008.7
20260505140507 21 206 1.6 4.8 0.00 0.15 0.15 68 1009.1
20260505125008 13 259 0.0 1.6 0.10 0.15 0.15 90 1009.8
20260505124518 13 290 0.0 3.2 0.10 0.15 0.15 90 1009.7
20260505124006 13 266 0.0 3.2 0.10 0.15 0.15 90 1009.9
20260505123507 13 225 0.0 3.2 0.10 0.15 0.15 89 1009.9
20260505123017 13 224 0.0 3.2 0.10 0.15 0.15 89 1009.9
20260505122507 13 164 1.6 4.8 0.10 0.15 0.15 88 1009.9
20260505122007 13 10 0.0 4.8 0.08 0.13 0.13 88 1010.2
20260505121519 13 359 0.0 3.2 0.03 0.08 0.08 89 1010.8
20260505121008 13 347 0.0 3.2 0.03 0.08 0.08 89 1010.2
20260505120513 13 275 0.0 3.2 0.00 0.05 0.05 89 1010.2
20260505120019 13 266 0.0 3.2 0.00 0.05 0.05 88 1010.1
20260505115508 13 214 0.0 0.0 0.00 0.05 0.05 87 1010.3
20260505115011 13 214 0.0 0.0 0.00 0.05 0.05 86 1010.1
20260505114516 13 126 0.0 0.0 0.00 0.05 0.05 87 1010.0
20260505114013 13 125 0.0 0.0 0.00 0.05 0.05 88 1009.7
20260505113504 12 125 0.0 0.0 0.00 0.05 0.05 88 1009.5
20260505113007 12 125 0.0 0.0 0.00 0.05 0.05 88 1009.4
20260505112507 12 126 0.0 0.0 0.00 0.05 0.05 89 1009.3
20260505112003 12 125 0.0 0.0 0.00 0.05 0.05 89 1009.4
20260505111511 12 126 0.0 0.0 0.00 0.05 0.05 89 1009.3
20260505111003 12 247 0.0 0.0 0.00 0.05 0.05 90 1009.2
20260505110504 12 247 0.0 0.0 0.00 0.05 0.05 90 1009.2
20260505102007 12 278 0.0 0.0 0.05 0.05 0.05 89 1009.1
20260505101512 12 278 0.0 0.0 0.05 0.05 0.05 88 1009.3
20260505101007 12 278 0.0 0.0 0.05 0.05 0.05 88 1009.3
20260505100504 12 279 0.0 0.0 0.05 0.05 0.05 88 1009.3
20260505100003 12 329 0.0 0.0 0.05 0.05 0.05 88 1009.2
20260505095501 11 286 0.0 0.0 0.05 0.05 0.05 88 1009.1
20260505095003 11 278 0.0 0.0 0.05 0.05 0.05 88 1009.2
20260505094508 12 274 0.0 3.2 0.05 0.05 0.05 88 1008.9
20260505094006 12 281 0.0 3.2 0.05 0.05 0.05 87 1008.7
20260505093505 12 275 0.0 4.8 0.05 0.05 0.05 87 1008.7
20260505093012 12 260 0.0 4.8 0.05 0.05 0.05 84 1008.6
20260505092507 12 305 0.0 3.2 0.05 0.05 0.05 81 1008.1
20260505092007 12 259 0.0 3.2 0.00 0.00 0.00 79 1008.8
20260505091514 12 258 1.6 3.2 0.00 0.00 0.00 78 1008.6
20260505091004 12 254 1.6 3.2 0.00 0.00 0.00 79 1008.5
20260505090508 11 259 0.0 0.0 0.00 0.00 0.00 78 1008.4
20260505090019 12 259 0.0 0.0 0.00 0.00 0.00 78 1008.6
20260505085507 11 259 0.0 0.0 0.00 0.00 0.00 78 1008.6
20260505085010 12 259 0.0 0.0 0.00 0.00 0.00 77 1008.6
20260505084520 12 259 0.0 0.0 0.00 0.00 0.00 76 1008.8
20260505084005 12 259 0.0 0.0 0.00 0.00 0.00 76 1008.7
20260505083508 12 259 0.0 0.0 0.00 0.00 0.00 75 1008.7
20260505083013 12 259 0.0 0.0 0.00 0.00 0.00 75 1008.7
20260505082507 12 259 0.0 0.0 0.00 0.00 0.00 74 1008.6
20260505082005 12 259 0.0 0.0 0.00 0.00 0.00 73 1008.6
20260505081513 12 259 0.0 0.0 0.00 0.00 0.00 73 1008.6
20260505081008 12 259 0.0 0.0 0.00 0.00 0.00 72 1008.6
20260505080506 12 259 0.0 0.0 0.00 0.00 0.00 72 1008.5
20260505080014 12 259 0.0 0.0 0.00 0.00 0.00 72 1008.5
20260505075509 13 259 0.0 0.0 0.00 0.00 0.00 71 1008.5
20260505075012 13 259 0.0 0.0 0.00 0.00 0.00 70 1008.4
20260505074518 13 259 0.0 0.0 0.00 0.00 0.00 71 1008.4
20260505074006 13 259 0.0 0.0 0.00 0.00 0.00 70 1008.4
20260505073507 13 259 0.0 0.0 0.00 0.00 0.00 70 1008.4
20260505073023 13 259 0.0 0.0 0.00 0.00 0.00 70 1008.3
20260505072502 13 259 0.0 0.0 0.00 0.00 0.00 71 1008.3
20260505072005 13 259 0.0 0.0 0.00 0.00 0.00 70 1008.3
20260505071520 13 259 0.0 0.0 0.00 0.00 0.00 71 1008.3
20260505071007 13 259 0.0 0.0 0.00 0.00 0.00 69 1008.3
20260505070507 13 259 0.0 0.0 0.00 0.00 0.00 70 1008.3
20260505070012 14 308 0.0 0.0 0.00 0.00 0.00 68 1008.2
20260505065507 14 255 0.0 0.0 0.00 0.00 0.00 68 1008.3
20260505065008 14 255 0.0 0.0 0.00 0.00 0.00 66 1008.1
20260505064523 14 255 0.0 0.0 0.00 0.00 0.00 65 1008.2
20260505064007 14 255 0.0 0.0 0.00 0.00 0.00 66 1008.3
20260505063507 14 255 0.0 1.6 0.00 0.00 0.00 66 1008.3
20260505063020 14 255 0.0 1.6 0.00 0.00 0.00 66 1008.3
20260505062510 14 255 0.0 1.6 0.00 0.00 0.00 66 1008.3
20260505062010 14 255 0.0 1.6 0.00 0.00 0.00 67 1008.3
20260505061523 14 255 1.6 1.6 0.00 0.00 0.00 67 1008.5
20260505061008 14 253 1.6 1.6 0.00 0.00 0.00 66 1008.6
20260505060509 14 254 0.0 1.6 0.00 0.00 0.00 68 1008.5
20260505060011 14 254 0.0 1.6 0.00 0.00 0.00 65 1008.4